This is the latest recevied weather packets stored in our database for station/object WA6ODQ-13. If no packets are shown the sender has not sent any weather packets the latest 10 day(s).
| Time | Temp. | Humidity | Pressure | Rain* | Wind** | Luminosity | Snow |
|---|---|---|---|---|---|---|---|
| 1788196338 | 15.56° C | 80% | 1010.5 hPa | 0 mm | - | 120 W/m² | - |
| 1788196035 | 15.56° C | 80% | 1010.4 hPa | 0 mm | - | 105 W/m² | - |
| 1788195731 | 15.56° C | 80% | 1010.2 hPa | 0 mm | - | 101 W/m² | - |
| 1788195427 | 15.56° C | 81% | 1010.3 hPa | 0 mm | - | 94 W/m² | - |
| 1788195123 | 15° C | 81% | 1010.1 hPa | 0 mm | - | 85 W/m² | - |
| 1788194818 | 15° C | 81% | 1010.2 hPa | 0 mm | - | 85 W/m² | - |
| 1788194515 | 15° C | 81% | 1010.2 hPa | 0 mm | - | 86 W/m² | - |
| 1788194209 | 15° C | 82% | 1010.2 hPa | 0 mm | - | 87 W/m² | - |
| 1788193905 | 15° C | 82% | 1010.2 hPa | 0 mm | - | 89 W/m² | - |
| 1788193604 | 15° C | 82% | 1010.1 hPa | 0 mm | - | 89 W/m² | - |
| 1788193302 | 15° C | 83% | 1010 hPa | 0 mm | - | 89 W/m² | - |
| 1788192998 | 15° C | 83% | 1009.8 hPa | 0 mm | - | 95 W/m² | - |
| 1788192695 | 14.44° C | 84% | 1009.9 hPa | 0 mm | - | 93 W/m² | - |
| 1788192393 | 14.44° C | 84% | 1010 hPa | 0 mm | - | 89 W/m² | - |
| 1788192089 | 14.44° C | 84% | 1010.3 hPa | 0 mm | - | 81 W/m² | - |
| 1788191788 | 14.44° C | 85% | 1010 hPa | 0 mm | - | 70 W/m² | - |
| 1788191484 | 14.44° C | 85% | 1010.2 hPa | 0 mm | - | 60 W/m² | - |
| 1788191180 | 14.44° C | 85% | 1010.1 hPa | 0 mm | - | 55 W/m² | - |
| 1788190875 | 13.89° C | 85% | 1010 hPa | 0 mm | - | 54 W/m² | - |
| 1788190574 | 13.89° C | 86% | 1010 hPa | 0 mm | - | 53 W/m² | - |
| 1788190271 | 13.89° C | 86% | 1010 hPa | 0 mm | - | 51 W/m² | - |
| 1788189966 | 13.89° C | 86% | 1010 hPa | 0 mm | - | 52 W/m² | - |
| 1788189661 | 13.89° C | 86% | 1009.8 hPa | 0 mm | - | 54 W/m² | - |
| 1788189360 | 13.89° C | 86% | 1009.7 hPa | 0 mm | - | 56 W/m² | - |
| 1788189055 | 13.89° C | 86% | 1009.8 hPa | 0 mm | - | 54 W/m² | - |
* Rain latest hour (hover to see other rain measurements)
** Current wind speed in m/s (hover to see current wind gust speed)